Regional Weather Roundup
Issued by NWS

Home | Current Version | Previous Version | Text Only | Print | Product List | Glossary Off
Versions: 1 2 3 4 5 6 7 8 9 10 11 12 13 14 15 16 17 18 19 20 21 22 23 24 25 26 27 28 29 30 31 32 33 34 35 36 37 38 39 40 41 42 43 44 45 46 47 48 49 50

723
ASUS43 KIND 011509
RWRIN

WEATHER ROUNDUP FOR INDIANA
NATIONAL WEATHER SERVICE INDIANAPOLIS IN
1000 AM EST WED MAR 01 2017

NOTE: "FAIR" INDICATES FEW OR NO CLOUDS BELOW 12,000 FEET WITH NO
SIGNIFICANT WEATHER AND/OR OBSTRUCTIONS TO VISIBILITY.

* - STATION DOES NOT REPORT WEATHER SUCH AS PRECIPITATION OR FOG.

+ - STATION NOT QUALITY CONTROLLED BY THE NATIONAL WEATHER SERVICE.
    USE DATA WITH CAUTION...ESPECIALLY DEWPOINT AND RELATIVE
    HUMIDITY OBSERVATIONS.

INZ001>003-010>013-019-020-011600-
NORTHWEST INDIANA

CITY           SKY/WX    TMP DP  RH WIND       PRES   REMARKS
GARY /AIRPORT/ DRIZZLE   39  39 100 NW12      29.51R
KNOX *+        CLOUDY    45  36  70 W9G17     29.46R
LA PORTE +     FOG       39  39  99 W8        29.47R VSB 1/4
MICHIGAN CITY+ FOG       37  37 100 W8        29.48R VSB 1/2
MONTICELLO +   CLOUDY    52  49  88 W21G31    29.50R
RENSSELAER +   CLOUDY    50  46  87 W21G31    29.52R
VALPARAISO     FOG       41  41 100 W12       29.48R VSB 1/4

$$

LMZ046-743>745-011600-
SOUTHERN LAKE MICHIGAN

STATION/POSITION TIME  TEMP    WIND        PRES    WAVE
                       AIR SEA DIR/SP/G            HT
                 (UTC) (F)     (DEG/KT/KT) (MB)    (FT)
BURNS HARBOR     1440   37     270/ 10/ 11  999.3R
MICHIGAN CITY    1440   36     210/ 10/ 11   N/A

$$

INZ004-005-014>016-021>024-011600-
NORTH CENTRAL INDIANA

CITY           SKY/WX    TMP DP  RH WIND       PRES   REMARKS
ELKHART        CLOUDY    54  50  87 W16       29.42R
GOSHEN         CLOUDY    53  49  86 SW17      29.42
LOGANSPORT +   CLOUDY    52  48  87 W24G36    29.50R
PERU/GRISSOM   CLOUDY    55  53  92 W29G36    29.47R
ROCHESTER +    CLOUDY    55  52  88 SW17G24   29.47R
SOUTH BEND     FOG       43  43 100 W12       29.45R VSB 1/2
WARSAW +       CLOUDY    54  52  94 SW16G23   29.44R

$$

INZ006>009-017-018-025>027-011600-
NORTHEAST INDIANA

CITY           SKY/WX    TMP DP  RH WIND       PRES   REMARKS
ANGOLA *+      CLOUDY    54  45  71 SW14      29.39F
AUBURN +       CLOUDY    54  50  87 SW12G21   29.43F
FORT WAYNE     PTSUNNY   56  51  84 SW20G29   29.44R
HUNTINGTON +   MOSUNNY   56  51  82 SW16G24   29.45R
KENDALLVILLE + CLOUDY    53  51  95 SW15      29.47R

$$

INZ028-029-035-036-043>045-051>053-011600-
WEST CENTRAL INDIANA

CITY           SKY/WX    TMP DP  RH WIND       PRES   REMARKS
GREENCASTLE +  CLOUDY    54  48  82 W13G22    29.59R
LAFAYETTE      CLOUDY    52  49  89 W30G39    29.52R
TERRE HAUTE    CLOUDY    56  48  74 W24G35    29.61R

$$

INZ030>032-037>040-046>048-054>057-064-065-011600-
CENTRAL INDIANA

CITY           SKY/WX    TMP DP  RH WIND       PRES   REMARKS
ANDERSON       PTSUNNY   55  50  82 SW17G23   29.54R
CP ATTERBURY + CLOUDY    55  50  82 SW20G28   29.59S
COLUMBUS       MOSUNNY   54  54 100 SW14      29.60R
FRANKFORT +    CLOUDY    56  52  85 W23G31    29.54R
GREENWOOD *+   CLOUDY    56  51  84 SW16G25   29.58R
INDIANAPOLIS   CLOUDY    54  50  86 SW23G32   29.56S
-EAGLE CREEK   CLOUDY    56  49  77 SW14G23   29.55R
KOKOMO +       CLOUDY    55  50  83 SW26G36   29.50S
MARION +       CLOUDY    55  50  82 SW30G39   29.50F
MT COMFORT *+  CLOUDY    54  50  87 SW23G32   29.55F
SHELBYVILLE    PTSUNNY   57  50  77 SW16      29.57R
ZIONSVILLE +   CLOUDY    53  49  86 SW18G25   29.55R

$$

INZ033-034-041-042-049-050-058-059-011600-
EAST CENTRAL INDIANA

CITY           SKY/WX    TMP DP  RH WIND       PRES   REMARKS
MUNCIE         CLOUDY    57  49  74 SW20G29   29.50R

$$

INZ060-061-067>069-081>083-085>088-011600-
SOUTHWEST INDIANA

CITY           SKY/WX    TMP DP  RH WIND       PRES   REMARKS
EVANSVILLE     NOT AVBL
HUNTINGBURG *+ MOSUNNY   57  54  88 S18       29.68S
WASHINGTON +   CLOUDY    58  51  77 MISG      29.65R

$$

INZ062-063-066-070>080-084-089>092-011600-
SOUTH CENTRAL AND SOUTHEAST INDIANA

CITY           SKY/WX    TMP DP  RH WIND       PRES   REMARKS
BLOOMINGTON    CLOUDY    56  49  77 W13G23    29.61R

$$





USA.gov is the U.S. government's official web portal to all federal, state and local government web resources and services.